TimeCDT,TemperatureF,Dew PointF,Humidity,Sea Level PressureIn,VisibilityMPH,Wind Direction,Wind SpeedMPH,Gust SpeedMPH,PrecipitationIn,Events,Conditions,WindDirDegrees,DateUTC
12:15 AM,32.5,32.4,99,30.00,7.0,North,3.5,-,N/A,,Clear,10,2013-04-09 05:15:00
12:35 AM,32.0,31.8,99,30.02,5.0,Calm,Calm,-,N/A,,Scattered Clouds,0,2013-04-09 05:35:00
12:55 AM,31.1,31.1,100,30.02,3.0,Calm,Calm,-,N/A,,Mostly Cloudy,0,2013-04-09 05:55:00
1:15 AM,31.8,31.6,99,30.03,4.0,Calm,Calm,-,N/A,,Overcast,0,2013-04-09 06:15:00
1:35 AM,31.8,31.8,100,30.04,4.0,Calm,Calm,-,N/A,,Overcast,0,2013-04-09 06:35:00
1:55 AM,31.5,31.5,100,30.02,3.0,NNE,3.5,-,N/A,,Overcast,20,2013-04-09 06:55:00
2:15 AM,30.7,30.7,100,30.01,1.5,Calm,Calm,-,N/A,,Overcast,0,2013-04-09 07:15:00
2:35 AM,29.3,29.3,100,30.01,0.5,East,3.5,-,N/A,Fog,Light Freezing Fog,80,2013-04-09 07:35:00
2:55 AM,31.5,31.5,100,30.00,0.2,ENE,3.5,-,N/A,Fog,Light Freezing Fog,70,2013-04-09 07:55:00
3:15 AM,31.6,31.6,100,29.99,0.2,ENE,5.8,-,N/A,Snow,Light Snow,60,2013-04-09 08:15:00
3:35 AM,30.9,30.9,100,29.98,0.5,ENE,6.9,-,N/A,Fog,Light Freezing Fog,70,2013-04-09 08:35:00
3:55 AM,30.6,30.6,100,29.98,0.5,NE,4.6,-,N/A,Fog,Light Freezing Fog,50,2013-04-09 08:55:00
4:15 AM,30.2,30.2,100,30.00,0.8,NNE,5.8,-,N/A,,Overcast,30,2013-04-09 09:15:00
4:35 AM,30.2,30.2,100,30.02,0.8,Calm,Calm,-,N/A,,Overcast,0,2013-04-09 09:35:00
4:55 AM,30.0,30.0,100,30.04,1.0,SW,3.5,-,N/A,,Overcast,230,2013-04-09 09:55:00
5:15 AM,30.6,30.6,100,30.03,0.8,Calm,Calm,-,N/A,,Overcast,0,2013-04-09 10:15:00
5:35 AM,30.4,30.4,100,30.04,0.2,Calm,Calm,-,N/A,Fog,Light Freezing Fog,0,2013-04-09 10:35:00
5:55 AM,30.2,30.2,100,30.02,0.2,NNE,6.9,-,N/A,Fog,Light Freezing Fog,20,2013-04-09 10:55:00
6:15 AM,30.7,30.7,100,30.02,0.5,North,5.8,-,N/A,Fog,Light Freezing Fog,10,2013-04-09 11:15:00
6:35 AM,31.1,31.1,100,30.05,0.5,Calm,Calm,-,N/A,Fog,Light Freezing Fog,0,2013-04-09 11:35:00
6:55 AM,31.1,31.1,100,30.05,0.2,Calm,Calm,-,N/A,Fog,Light Freezing Fog,0,2013-04-09 11:55:00
7:15 AM,31.5,31.5,100,30.04,0.2,NE,4.6,-,N/A,Fog,Light Freezing Fog,40,2013-04-09 12:15:00
7:35 AM,31.5,31.5,100,30.04,0.8,NE,6.9,-,N/A,,Overcast,40,2013-04-09 12:35:00
7:55 AM,31.5,31.5,100,30.03,1.0,NE,9.2,-,N/A,,Overcast,40,2013-04-09 12:55:00
8:15 AM,31.6,31.6,100,30.03,0.5,NNE,6.9,-,N/A,Fog,Light Freezing Fog,30,2013-04-09 13:15:00
8:35 AM,32.0,32.0,100,30.05,0.5,NNE,5.8,-,N/A,Fog,Fog,30,2013-04-09 13:35:00
8:55 AM,32.2,32.2,100,30.04,7.0,NE,6.9,-,N/A,,Overcast,50,2013-04-09 13:55:00
9:15 AM,32.5,32.5,100,30.03,10.0,NE,8.1,-,N/A,,Overcast,50,2013-04-09 14:15:00
9:35 AM,32.9,32.9,100,30.03,7.0,NE,8.1,-,N/A,,Overcast,40,2013-04-09 14:35:00
9:55 AM,33.4,33.4,100,30.01,5.0,NE,10.4,-,N/A,,Overcast,40,2013-04-09 14:55:00
10:15 AM,34.7,34.7,100,30.02,10.0,NE,9.2,-,N/A,,Overcast,40,2013-04-09 15:15:00
10:35 AM,35.1,34.9,99,30.02,10.0,NNE,10.4,-,N/A,,Overcast,30,2013-04-09 15:35:00
10:55 AM,35.1,34.9,99,30.02,10.0,NNE,9.2,-,N/A,,Overcast,30,2013-04-09 15:55:00
11:15 AM,35.6,35.1,98,30.01,10.0,NNE,11.5,-,N/A,,Overcast,30,2013-04-09 16:15:00
11:35 AM,36.1,35.4,97,30.02,10.0,NNE,8.1,-,N/A,,Overcast,20,2013-04-09 16:35:00
11:55 AM,36.1,35.6,98,30.02,10.0,NNE,10.4,-,N/A,,Overcast,20,2013-04-09 16:55:00
12:15 PM,35.8,34.9,97,30.01,10.0,NNE,9.2,-,N/A,,Light Drizzle,30,2013-04-09 17:15:00
12:35 PM,36.1,34.7,94,30.02,10.0,NNE,11.5,-,N/A,,Light Drizzle,30,2013-04-09 17:35:00
12:55 PM,35.6,34.7,97,30.02,4.0,NNE,6.9,-,0.01,Rain,Light Rain,20,2013-04-09 17:55:00
1:15 PM,35.6,34.0,94,30.03,4.0,NE,11.5,16.1,0.02,Rain,Light Rain,40,2013-04-09 18:15:00
1:35 PM,35.2,33.8,94,30.03,4.0,NNE,13.8,-,0.05,Rain,Light Rain,30,2013-04-09 18:35:00
1:55 PM,35.2,34.0,95,30.02,5.0,NNE,15.0,-,0.07,Rain,Rain,30,2013-04-09 18:55:00
2:15 PM,35.1,34.0,96,30.04,7.0,NNE,11.5,-,0.01,Rain,Light Rain,30,2013-04-09 19:15:00
2:35 PM,35.1,34.0,96,30.05,5.0,NNE,11.5,-,0.03,Rain,Light Rain,30,2013-04-09 19:35:00
2:55 PM,35.1,34.0,96,30.05,7.0,NNE,8.1,-,0.04,Rain,Light Rain,30,2013-04-09 19:55:00
3:15 PM,35.2,34.2,96,30.05,10.0,NNE,11.5,-,0.01,Rain,Light Rain,30,2013-04-09 20:15:00
3:35 PM,35.2,34.0,95,30.04,10.0,NNE,11.5,-,0.01,Rain,Light Rain,30,2013-04-09 20:35:00
3:55 PM,35.1,33.8,95,30.04,10.0,NNE,11.5,20.7,0.01,,Light Drizzle,30,2013-04-09 20:55:00
4:15 PM,35.1,33.4,94,30.04,10.0,NNE,17.3,23.0,N/A,,Overcast,30,2013-04-09 21:15:00
4:35 PM,35.1,33.4,94,30.03,10.0,NE,15.0,-,N/A,,Overcast,40,2013-04-09 21:35:00
4:55 PM,35.2,32.4,89,30.04,10.0,NNE,18.4,-,N/A,,Overcast,30,2013-04-09 21:55:00
5:15 PM,35.6,32.0,87,30.03,10.0,NE,16.1,-,N/A,,Overcast,40,2013-04-09 22:15:00
5:35 PM,35.2,31.1,85,30.04,10.0,NE,16.1,-,N/A,,Overcast,40,2013-04-09 22:35:00
5:55 PM,35.2,30.9,84,30.05,10.0,NE,17.3,-,N/A,,Overcast,40,2013-04-09 22:55:00
6:15 PM,34.9,30.2,83,30.06,10.0,NE,13.8,19.6,N/A,,Overcast,40,2013-04-09 23:15:00
6:35 PM,34.5,28.8,79,30.08,10.0,NE,15.0,-,N/A,,Overcast,50,2013-04-09 23:35:00
6:55 PM,34.2,28.0,78,30.07,10.0,NE,13.8,-,N/A,,Overcast,40,2013-04-09 23:55:00
7:15 PM,33.8,26.4,74,30.08,10.0,NNE,15.0,-,N/A,,Overcast,30,2013-04-10 00:15:00
7:35 PM,33.3,24.3,70,30.08,10.0,NE,15.0,23.0,N/A,,Mostly Cloudy,40,2013-04-10 00:35:00
7:55 PM,33.1,23.9,69,30.10,10.0,NE,17.3,-,N/A,,Mostly Cloudy,50,2013-04-10 00:55:00
8:15 PM,32.9,24.1,70,30.11,10.0,NE,10.4,16.1,N/A,,Overcast,50,2013-04-10 01:15:00
8:35 PM,32.7,23.4,68,30.11,10.0,NE,15.0,19.6,N/A,,Overcast,40,2013-04-10 01:35:00
8:55 PM,32.4,22.5,67,30.10,10.0,NE,17.3,24.2,N/A,,Overcast,40,2013-04-10 01:55:00
9:15 PM,32.0,23.0,69,30.08,10.0,NE,16.1,-,N/A,,Overcast,40,2013-04-10 02:15:00
9:55 PM,32.0,22.6,68,30.09,10.0,NE,13.8,-,N/A,,Overcast,40,2013-04-10 02:55:00
10:15 PM,31.8,22.5,68,30.08,10.0,NE,16.1,-,N/A,,Overcast,40,2013-04-10 03:15:00
10:35 PM,31.6,22.5,69,30.08,10.0,NE,11.5,-,N/A,,Overcast,40,2013-04-10 03:35:00
10:55 PM,31.5,22.3,69,30.07,10.0,NE,12.7,-,N/A,,Overcast,50,2013-04-10 03:55:00
11:15 PM,30.9,20.5,65,30.05,10.0,NE,16.1,-,N/A,,Mostly Cloudy,50,2013-04-10 04:15:00
11:35 PM,30.2,21.6,70,30.03,10.0,NE,19.6,23.0,N/A,,Mostly Cloudy,40,2013-04-10 04:35:00
11:55 PM,30.0,21.2,70,30.07,10.0,NE,13.8,-,N/A,,Overcast,50,2013-04-10 04:55:00